owner,sensor,date,latitude,longitude,vertical_datum,mass_concentration_of_oxygen_in_sea_water,qcFlag 
DISL,ioos:station:DISL:MHPA:1,2019-10-15T16:30:00Z,30.6671,-87.9365,1.532,3.72,11111222 
DISL,ioos:station:DISL:MHPA:1,2019-10-15T17:00:00Z,30.6671,-87.9365,1.555,4.73,11111222 
DISL,ioos:station:DISL:MHPA:1,2019-10-15T18:30:00Z,30.6671,-87.9365,1.635,4.56,11111222 
DISL,ioos:station:DISL:MHPA:1,2019-10-15T19:30:00Z,30.6671,-87.9365,1.66,3.49,11111222 
DISL,ioos:station:DISL:MHPA:1,2019-10-15T20:30:00Z,30.6671,-87.9365,1.664,3.05,11111222 
DISL,ioos:station:DISL:MHPA:1,2019-10-15T22:00:00Z,30.6671,-87.9365,1.673,5.35,11111222 
DISL,ioos:station:DISL:MHPA:1,2019-10-15T22:30:00Z,30.6671,-87.9365,1.675,5.87,11111222 
DISL,ioos:station:DISL:MHPA:1,2019-10-15T23:30:00Z,30.6671,-87.9365,1.652,6.6,11111222 
DISL,ioos:station:DISL:MHPA:1,2019-10-16T00:30:00Z,30.6671,-87.9365,1.621,5.43,11111222 
DISL,ioos:station:DISL:MHPA:1,2019-10-16T01:30:00Z,30.6671,-87.9365,1.664,4.29,11111222 
DISL,ioos:station:DISL:MHPA:1,2019-10-16T02:30:00Z,30.6671,-87.9365,1.705,4.2,11111222 
DISL,ioos:station:DISL:MHPA:1,2019-10-16T03:30:00Z,30.6671,-87.9365,1.793,4.65,11111222 
DISL,ioos:station:DISL:MHPA:1,2019-10-16T05:00:00Z,30.6671,-87.9365,1.83,4.94,11111222 
DISL,ioos:station:DISL:MHPA:1,2019-10-16T05:30:00Z,30.6671,-87.9365,1.868,5.27,11111222 
DISL,ioos:station:DISL:MHPA:1,2019-10-16T06:30:00Z,30.6671,-87.9365,1.765,5.04,11111222 
DISL,ioos:station:DISL:MHPA:1,2019-10-16T07:30:00Z,30.6671,-87.9365,1.657,4.94,11111222 
DISL,ioos:station:DISL:MHPA:1,2019-10-16T08:30:00Z,30.6671,-87.9365,1.582,4.97,11111222 
DISL,ioos:station:DISL:MHPA:1,2019-10-16T09:30:00Z,30.6671,-87.9365,1.584,5.05,11111222 
DISL,ioos:station:DISL:MHPA:1,2019-10-16T11:00:00Z,30.6671,-87.9365,1.526,4.8,11111222 
DISL,ioos:station:DISL:MHPA:1,2019-10-16T11:30:00Z,30.6671,-87.9365,1.504,4.88,11111222 
DISL,ioos:station:DISL:MHPA:1,2019-10-16T12:30:00Z,30.6671,-87.9365,1.441,4.55,11111222 
DISL,ioos:station:DISL:MHPA:1,2019-10-16T14:00:00Z,30.6671,-87.9365,1.358,4.42,11111222 
DISL,ioos:station:DISL:MHPA:1,2019-10-16T14:30:00Z,30.6671,-87.9365,1.372,4.36,11111222 
DISL,ioos:station:DISL:MHPA:1,2019-10-16T16:00:00Z,30.6671,-87.9365,1.369,4.26,11111222 
DISL,ioos:station:DISL:MHPA:1,2019-10-16T16:30:00Z,30.6671,-87.9365,1.424,4.64,11111222 
DISL,ioos:station:DISL:MHPA:1,2019-10-16T17:30:00Z,30.6671,-87.9365,1.412,4.65,11111222 
DISL,ioos:station:DISL:MHPA:1,2019-10-16T19:00:00Z,30.6671,-87.9365,1.324,5.02,11111222 
DISL,ioos:station:DISL:MHPA:1,2019-10-16T21:30:00Z,30.6671,-87.9365,1.408,6.58,11111222 
DISL,ioos:station:DISL:MHPA:1,2019-10-16T23:00:00Z,30.6671,-87.9365,1.499,6.61,11111222 
DISL,ioos:station:DISL:MHPA:1,2019-10-17T00:00:00Z,30.6671,-87.9365,1.524,7.15,11111222 
DISL,ioos:station:DISL:MHPA:1,2019-10-17T01:00:00Z,30.6671,-87.9365,1.49,5.52,11111222 
DISL,ioos:station:DISL:MHPA:1,2019-10-17T02:00:00Z,30.6671,-87.9365,1.545,6.1,11111222 
DISL,ioos:station:DISL:MHPA:1,2019-10-17T03:00:00Z,30.6671,-87.9365,1.52,5.87,11111222 
DISL,ioos:station:DISL:MHPA:1,2019-10-17T04:00:00Z,30.6671,-87.9365,1.55,5.92,11111222 
DISL,ioos:station:DISL:MHPA:1,2019-10-17T05:00:00Z,30.6671,-87.9365,1.609,5.47,11111222 
DISL,ioos:station:DISL:MHPA:1,2019-10-17T06:00:00Z,30.6671,-87.9365,1.567,4.99,11111222 
DISL,ioos:station:DISL:MHPA:1,2019-10-17T07:00:00Z,30.6671,-87.9365,1.555,5.38,11111222 
DISL,ioos:station:DISL:MHPA:1,2019-10-17T08:00:00Z,30.6671,-87.9365,1.496,5.06,11111222 
DISL,ioos:station:DISL:MHPA:1,2019-10-17T09:00:00Z,30.6671,-87.9365,1.449,4.39,11111222 
DISL,ioos:station:DISL:MHPA:1,2019-10-17T10:00:00Z,30.6671,-87.9365,1.399,3.84,11111222 
DISL,ioos:station:DISL:MHPA:1,2019-10-17T11:00:00Z,30.6671,-87.9365,1.326,3.53,11111222 
DISL,ioos:station:DISL:MHPA:1,2019-10-17T12:00:00Z,30.6671,-87.9365,1.313,4.17,11111222 
DISL,ioos:station:DISL:MHPA:1,2019-10-17T13:00:00Z,30.6671,-87.9365,1.318,4.02,11111222 
DISL,ioos:station:DISL:MHPA:1,2019-10-17T14:00:00Z,30.6671,-87.9365,1.331,4.09,11111222 
DISL,ioos:station:DISL:MHPA:1,2019-10-17T15:00:00Z,30.6671,-87.9365,1.278,4.13,11111222 
DISL,ioos:station:DISL:MHPA:1,2019-10-17T16:00:00Z,30.6671,-87.9365,1.28,4.18,11111222 
DISL,ioos:station:DISL:MHPA:1,2019-10-17T17:00:00Z,30.6671,-87.9365,1.287,4.43,11111222 
DISL,ioos:station:DISL:MHPA:1,2019-10-17T18:00:00Z,30.6671,-87.9365,1.324,4.7,11111222 
DISL,ioos:station:DISL:MHPA:1,2019-10-17T19:00:00Z,30.6671,-87.9365,1.339,4.85,11111222 
DISL,ioos:station:DISL:MHPA:1,2019-10-17T20:00:00Z,30.6671,-87.9365,1.381,5.32,11111222 
DISL,ioos:station:DISL:MHPA:1,2019-10-17T21:00:00Z,30.6671,-87.9365,1.434,5.42,11111222 
DISL,ioos:station:DISL:MHPA:1,2019-10-17T22:00:00Z,30.6671,-87.9365,1.473,6.17,11111222 
DISL,ioos:station:DISL:MHPA:1,2019-10-17T23:00:00Z,30.6671,-87.9365,1.529,6.39,11111222 
DISL,ioos:station:DISL:MHPA:1,2019-10-18T00:00:00Z,30.6671,-87.9365,1.574,5.97,11111222 
DISL,ioos:station:DISL:MHPA:1,2019-10-18T01:00:00Z,30.6671,-87.9365,1.59,5.98,11111222 
DISL,ioos:station:DISL:MHPA:1,2019-10-18T02:00:00Z,30.6671,-87.9365,1.597,6.38,11111222 
DISL,ioos:station:DISL:MHPA:1,2019-10-18T03:00:00Z,30.6671,-87.9365,1.619,5.87,11111222 
DISL,ioos:station:DISL:MHPA:1,2019-10-18T04:00:00Z,30.6671,-87.9365,1.635,5.22,11111222 
DISL,ioos:station:DISL:MHPA:1,2019-10-18T05:00:00Z,30.6671,-87.9365,1.666,5.74,11111222 
DISL,ioos:station:DISL:MHPA:1,2019-10-18T06:00:00Z,30.6671,-87.9365,1.733,5.12,11111222 
DISL,ioos:station:DISL:MHPA:1,2019-10-18T07:00:00Z,30.6671,-87.9365,1.746,5.38,11111222 
DISL,ioos:station:DISL:MHPA:1,2019-10-18T08:00:00Z,30.6671,-87.9365,1.715,4.98,11111222 
DISL,ioos:station:DISL:MHPA:1,2019-10-18T09:00:00Z,30.6671,-87.9365,1.697,5.09,11111222 
DISL,ioos:station:DISL:MHPA:1,2019-10-18T10:00:00Z,30.6671,-87.9365,1.634,4.54,11111222 
DISL,ioos:station:DISL:MHPA:1,2019-10-18T11:00:00Z,30.6671,-87.9365,1.585,4.65,11111222 
DISL,ioos:station:DISL:MHPA:1,2019-10-18T12:00:00Z,30.6671,-87.9365,1.53,4.73,11111222 
DISL,ioos:station:DISL:MHPA:1,2019-10-18T13:00:00Z,30.6671,-87.9365,1.493,4.71,11111222 
DISL,ioos:station:DISL:MHPA:1,2019-10-18T14:00:00Z,30.6671,-87.9365,1.419,4.53,11111222 
DISL,ioos:station:DISL:MHPA:1,2019-10-18T15:00:00Z,30.6671,-87.9365,1.344,4.51,11111222 
DISL,ioos:station:DISL:MHPA:1,2019-10-18T16:00:00Z,30.6671,-87.9365,1.325,4.62,11111222 
DISL,ioos:station:DISL:MHPA:1,2019-10-18T17:00:00Z,30.6671,-87.9365,1.31,4.78,11111222 
DISL,ioos:station:DISL:MHPA:1,2019-10-18T18:00:00Z,30.6671,-87.9365,1.331,4.96,11111222 
DISL,ioos:station:DISL:MHPA:1,2019-10-18T19:00:00Z,30.6671,-87.9365,1.302,4.82,11111222 
DISL,ioos:station:DISL:MHPA:1,2019-10-18T20:00:00Z,30.6671,-87.9365,1.334,4.9,11111222 
DISL,ioos:station:DISL:MHPA:1,2019-10-18T21:00:00Z,30.6671,-87.9365,1.312,4.79,11111222 
DISL,ioos:station:DISL:MHPA:1,2019-10-18T22:00:00Z,30.6671,-87.9365,1.32,4.58,11111222 
DISL,ioos:station:DISL:MHPA:1,2019-10-18T23:00:00Z,30.6671,-87.9365,1.377,4.35,11111222 
DISL,ioos:station:DISL:MHPA:1,2019-10-19T00:00:00Z,30.6671,-87.9365,1.381,4.54,11111222 
DISL,ioos:station:DISL:MHPA:1,2019-10-19T01:00:00Z,30.6671,-87.9365,1.419,4.79,11111222 
DISL,ioos:station:DISL:MHPA:1,2019-10-19T02:00:00Z,30.6671,-87.9365,1.476,4.41,11111222 
DISL,ioos:station:DISL:MHPA:1,2019-10-19T03:00:00Z,30.6671,-87.9365,1.59,4.84,11111222 
DISL,ioos:station:DISL:MHPA:1,2019-10-19T04:00:00Z,30.6671,-87.9365,1.623,4.48,11111222 
DISL,ioos:station:DISL:MHPA:1,2019-10-19T05:00:00Z,30.6671,-87.9365,1.645,4.51,11111222 
DISL,ioos:station:DISL:MHPA:1,2019-10-19T06:00:00Z,30.6671,-87.9365,1.657,4.44,11111222 
DISL,ioos:station:DISL:MHPA:1,2019-10-19T07:00:00Z,30.6671,-87.9365,1.678,4.43,11111222 
DISL,ioos:station:DISL:MHPA:1,2019-10-19T08:00:00Z,30.6671,-87.9365,1.719,4.38,11111222 
DISL,ioos:station:DISL:MHPA:1,2019-10-19T09:00:00Z,30.6671,-87.9365,1.751,4.34,11111222 
DISL,ioos:station:DISL:MHPA:1,2019-10-19T10:00:00Z,30.6671,-87.9365,1.766,4.44,11111222 
DISL,ioos:station:DISL:MHPA:1,2019-10-19T11:00:00Z,30.6671,-87.9365,1.795,4.9,11111222 
DISL,ioos:station:DISL:MHPA:1,2019-10-19T12:00:00Z,30.6671,-87.9365,1.762,4.64,11111222 
DISL,ioos:station:DISL:MHPA:1,2019-10-19T13:00:00Z,30.6671,-87.9365,1.697,4.74,11111222 
DISL,ioos:station:DISL:MHPA:1,2019-10-19T14:00:00Z,30.6671,-87.9365,1.625,4.69,11111222 
DISL,ioos:station:DISL:MHPA:1,2019-10-19T15:00:00Z,30.6671,-87.9365,1.579,4.87,11111222 
DISL,ioos:station:DISL:MHPA:1,2019-10-19T16:00:00Z,30.6671,-87.9365,1.506,5.12,11111222 
DISL,ioos:station:DISL:MHPA:1,2019-10-19T17:00:00Z,30.6671,-87.9365,1.477,5.29,11111222 
DISL,ioos:station:DISL:MHPA:1,2019-10-19T18:00:00Z,30.6671,-87.9365,1.417,5.94,11111222 
DISL,ioos:station:DISL:MHPA:1,2019-10-19T19:00:00Z,30.6671,-87.9365,1.361,5.4,11111222 
DISL,ioos:station:DISL:MHPA:1,2019-10-19T20:00:00Z,30.6671,-87.9365,1.318,6.24,11111222 
DISL,ioos:station:DISL:MHPA:1,2019-10-19T21:00:00Z,30.6671,-87.9365,1.366,6.18,11111222 
DISL,ioos:station:DISL:MHPA:1,2019-10-19T22:00:00Z,30.6671,-87.9365,1.413,6.21,11111222 
DISL,ioos:station:DISL:MHPA:1,2019-10-19T23:00:00Z,30.6671,-87.9365,1.485,6.27,11111222 
DISL,ioos:station:DISL:MHPA:1,2019-10-20T00:00:00Z,30.6671,-87.9365,1.533,6.18,11111222 
DISL,ioos:station:DISL:MHPA:1,2019-10-20T01:00:00Z,30.6671,-87.9365,1.606,6.02,11111222 
DISL,ioos:station:DISL:MHPA:1,2019-10-20T02:00:00Z,30.6671,-87.9365,1.674,6.07,11111222 
DISL,ioos:station:DISL:MHPA:1,2019-10-20T03:00:00Z,30.6671,-87.9365,1.723,6.2,11111222 
DISL,ioos:station:DISL:MHPA:1,2019-10-21T23:00:00Z,30.6671,-87.9365,1.142,5.91,11111222 
DISL,ioos:station:DISL:MHPA:1,2019-10-22T00:00:00Z,30.6671,-87.9365,1.137,6.9,11111222 
DISL,ioos:station:DISL:MHPA:1,2019-10-22T01:00:00Z,30.6671,-87.9365,1.247,6.77,11111222 
DISL,ioos:station:DISL:MHPA:1,2019-10-22T02:00:00Z,30.6671,-87.9365,1.329,6.71,11111222 
DISL,ioos:station:DISL:MHPA:1,2019-10-22T03:00:00Z,30.6671,-87.9365,1.468,6.63,11111222 
DISL,ioos:station:DISL:MHPA:1,2019-10-22T04:00:00Z,30.6671,-87.9365,1.477,6.49,11111222 
DISL,ioos:station:DISL:MHPA:1,2019-10-22T05:00:00Z,30.6671,-87.9365,1.588,6.26,11111222 
DISL,ioos:station:DISL:MHPA:1,2019-10-22T06:00:00Z,30.6671,-87.9365,1.662,5.94,11111222 
DISL,ioos:station:DISL:MHPA:1,2019-10-22T07:00:00Z,30.6671,-87.9365,1.686,5.65,11111222 
DISL,ioos:station:DISL:MHPA:1,2019-10-22T08:00:00Z,30.6671,-87.9365,1.686,5.6,11111222 
DISL,ioos:station:DISL:MHPA:1,2019-10-22T09:00:00Z,30.6671,-87.9365,1.723,5.77,11111222 
DISL,ioos:station:DISL:MHPA:1,2019-10-22T10:00:00Z,30.6671,-87.9365,1.651,6.03,11111222 
DISL,ioos:station:DISL:MHPA:1,2019-10-22T11:00:00Z,30.6671,-87.9365,1.602,6.12,11111222 
DISL,ioos:station:DISL:MHPA:1,2019-10-22T12:00:00Z,30.6671,-87.9365,1.52,6.26,11111222 
DISL,ioos:station:DISL:MHPA:1,2019-10-22T13:00:00Z,30.6671,-87.9365,1.482,5.69,11111222 
DISL,ioos:station:DISL:MHPA:1,2019-10-22T14:00:00Z,30.6671,-87.9365,1.462,5.93,11111222 
DISL,ioos:station:DISL:MHPA:1,2019-10-22T15:00:00Z,30.6671,-87.9365,1.378,5.85,11111222 
DISL,ioos:station:DISL:MHPA:1,2019-10-22T16:00:00Z,30.6671,-87.9365,1.326,5.82,11111222 
DISL,ioos:station:DISL:MHPA:1,2019-10-22T17:00:00Z,30.6671,-87.9365,1.24,5.71,11111222 
DISL,ioos:station:DISL:MHPA:1,2019-10-22T18:00:00Z,30.6671,-87.9365,1.173,6.31,11111222 
DISL,ioos:station:DISL:MHPA:1,2019-10-22T19:00:00Z,30.6671,-87.9365,1.124,6.56,11111222 
DISL,ioos:station:DISL:MHPA:1,2019-10-22T20:00:00Z,30.6671,-87.9365,1.067,6.55,11111222 
DISL,ioos:station:DISL:MHPA:1,2019-10-22T21:00:00Z,30.6671,-87.9365,1.059,7.04,11111222 
DISL,ioos:station:DISL:MHPA:1,2019-10-22T22:00:00Z,30.6671,-87.9365,1.035,7.02,11111222 
DISL,ioos:station:DISL:MHPA:1,2019-10-22T23:00:00Z,30.6671,-87.9365,1.035,6.99,11111222 
DISL,ioos:station:DISL:MHPA:1,2019-10-23T00:00:00Z,30.6671,-87.9365,1.083,6.78,11111222 
DISL,ioos:station:DISL:MHPA:1,2019-10-23T01:00:00Z,30.6671,-87.9365,1.143,6.84,11111222 
DISL,ioos:station:DISL:MHPA:1,2019-10-23T02:00:00Z,30.6671,-87.9365,1.208,6.68,11111222 
DISL,ioos:station:DISL:MHPA:1,2019-10-23T03:00:00Z,30.6671,-87.9365,1.271,6.43,11111222 
DISL,ioos:station:DISL:MHPA:1,2019-10-23T04:00:00Z,30.6671,-87.9365,1.338,6.6,11111222 
DISL,ioos:station:DISL:MHPA:1,2019-10-23T04:30:00Z,30.6671,-87.9365,1.384,6.41,11111222 
DISL,ioos:station:DISL:MHPA:1,2019-10-23T05:30:00Z,30.6671,-87.9365,1.441,6.49,11111222 
DISL,ioos:station:DISL:MHPA:1,2019-10-23T06:30:00Z,30.6671,-87.9365,1.478,5.99,11111222 
DISL,ioos:station:DISL:MHPA:1,2019-10-23T07:30:00Z,30.6671,-87.9365,1.508,6.14,11111222 
DISL,ioos:station:DISL:MHPA:1,2019-10-23T08:30:00Z,30.6671,-87.9365,1.531,5.94,11111222 
DISL,ioos:station:DISL:MHPA:1,2019-10-23T09:30:00Z,30.6671,-87.9365,1.532,6.09,11111222 
DISL,ioos:station:DISL:MHPA:1,2019-10-23T10:30:00Z,30.6671,-87.9365,1.495,5.98,11111222 
DISL,ioos:station:DISL:MHPA:1,2019-10-23T11:30:00Z,30.6671,-87.9365,1.531,5.75,11111222 
DISL,ioos:station:DISL:MHPA:1,2019-10-23T12:30:00Z,30.6671,-87.9365,1.468,5.58,11111222 
DISL,ioos:station:DISL:MHPA:1,2019-10-23T13:30:00Z,30.6671,-87.9365,1.434,5.61,11111222 
DISL,ioos:station:DISL:MHPA:1,2019-10-23T14:30:00Z,30.6671,-87.9365,1.455,5.63,11111222 
DISL,ioos:station:DISL:MHPA:1,2019-10-23T15:30:00Z,30.6671,-87.9365,1.475,5.84,11111222 
DISL,ioos:station:DISL:MHPA:1,2019-10-23T16:30:00Z,30.6671,-87.9365,1.481,5.87,11111222 
DISL,ioos:station:DISL:MHPA:1,2019-10-23T17:30:00Z,30.6671,-87.9365,1.433,6.48,11111222 
DISL,ioos:station:DISL:MHPA:1,2019-10-23T18:30:00Z,30.6671,-87.9365,1.366,6.87,11111222 
DISL,ioos:station:DISL:MHPA:1,2019-10-23T19:30:00Z,30.6671,-87.9365,1.32,7.69,11111222 
DISL,ioos:station:DISL:MHPA:1,2019-10-23T20:30:00Z,30.6671,-87.9365,1.258,7.09,11111222 
DISL,ioos:station:DISL:MHPA:1,2019-10-23T21:30:00Z,30.6671,-87.9365,1.221,7.35,11111222 
DISL,ioos:station:DISL:MHPA:1,2019-10-23T22:30:00Z,30.6671,-87.9365,1.207,7.92,11111222 
DISL,ioos:station:DISL:MHPA:1,2019-10-23T23:30:00Z,30.6671,-87.9365,1.182,7.95,11111222 
DISL,ioos:station:DISL:MHPA:1,2019-10-24T00:30:00Z,30.6671,-87.9365,1.195,7.29,11111222 
DISL,ioos:station:DISL:MHPA:1,2019-10-24T01:30:00Z,30.6671,-87.9365,1.24,7.22,11111222 
DISL,ioos:station:DISL:MHPA:1,2019-10-24T02:30:00Z,30.6671,-87.9365,1.288,7.5,11111222 
DISL,ioos:station:DISL:MHPA:1,2019-10-24T03:30:00Z,30.6671,-87.9365,1.388,7.12,11111222 
DISL,ioos:station:DISL:MHPA:1,2019-10-24T04:30:00Z,30.6671,-87.9365,1.469,6.41,11111222 
DISL,ioos:station:DISL:MHPA:1,2019-10-24T05:30:00Z,30.6671,-87.9365,1.508,6.72,11111222 
DISL,ioos:station:DISL:MHPA:1,2019-10-24T06:30:00Z,30.6671,-87.9365,1.517,7.0,11111222 
DISL,ioos:station:DISL:MHPA:1,2019-10-24T07:30:00Z,30.6671,-87.9365,1.538,6.08,11111222 
DISL,ioos:station:DISL:MHPA:1,2019-10-24T08:30:00Z,30.6671,-87.9365,1.506,6.14,11111222 
DISL,ioos:station:DISL:MHPA:1,2019-10-24T09:30:00Z,30.6671,-87.9365,1.531,5.94,11111222 
DISL,ioos:station:DISL:MHPA:1,2019-10-24T10:30:00Z,30.6671,-87.9365,1.526,5.7,11111222 
DISL,ioos:station:DISL:MHPA:1,2019-10-24T11:30:00Z,30.6671,-87.9365,1.54,5.85,11111222 
DISL,ioos:station:DISL:MHPA:1,2019-10-24T14:30:00Z,30.6671,-87.9365,1.553,5.55,11111222 
DISL,ioos:station:DISL:MHPA:1,2019-10-24T15:30:00Z,30.6671,-87.9365,1.57,6.09,11111222 
DISL,ioos:station:DISL:MHPA:1,2019-10-24T16:30:00Z,30.6671,-87.9365,1.57,5.94,11111222 
DISL,ioos:station:DISL:MHPA:1,2019-10-24T17:30:00Z,30.6671,-87.9365,1.532,6.47,11111222 
DISL,ioos:station:DISL:MHPA:1,2019-10-24T18:30:00Z,30.6671,-87.9365,1.484,6.63,11111222 
DISL,ioos:station:DISL:MHPA:1,2019-10-24T19:30:00Z,30.6671,-87.9365,1.387,7.1,11111222 
DISL,ioos:station:DISL:MHPA:1,2019-10-24T20:30:00Z,30.6671,-87.9365,1.304,6.91,11111222 
DISL,ioos:station:DISL:MHPA:1,2019-10-24T21:30:00Z,30.6671,-87.9365,1.253,7.21,11111222 
DISL,ioos:station:DISL:MHPA:1,2019-10-24T22:30:00Z,30.6671,-87.9365,1.22,7.08,11111222 
DISL,ioos:station:DISL:MHPA:1,2019-10-24T23:30:00Z,30.6671,-87.9365,1.233,7.84,11111222 
DISL,ioos:station:DISL:MHPA:1,2019-10-25T00:30:00Z,30.6671,-87.9365,1.278,7.53,11111222 
DISL,ioos:station:DISL:MHPA:1,2019-10-25T01:30:00Z,30.6671,-87.9365,1.315,7.49,11111222 
DISL,ioos:station:DISL:MHPA:1,2019-10-25T02:30:00Z,30.6671,-87.9365,1.35,7.3,11111222 
DISL,ioos:station:DISL:MHPA:1,2019-10-25T03:30:00Z,30.6671,-87.9365,1.431,7.43,11111222 
DISL,ioos:station:DISL:MHPA:1,2019-10-25T04:30:00Z,30.6671,-87.9365,1.512,6.1,11111222 
DISL,ioos:station:DISL:MHPA:1,2019-10-25T05:30:00Z,30.6671,-87.9365,1.571,6.05,11111222 
DISL,ioos:station:DISL:MHPA:1,2019-10-25T06:30:00Z,30.6671,-87.9365,1.593,5.71,11111222 
DISL,ioos:station:DISL:MHPA:1,2019-10-25T07:30:00Z,30.6671,-87.9365,1.612,5.71,11111222 
DISL,ioos:station:DISL:MHPA:1,2019-10-25T08:30:00Z,30.6671,-87.9365,1.616,5.26,11111222 
DISL,ioos:station:DISL:MHPA:1,2019-10-25T09:30:00Z,30.6671,-87.9365,1.6,5.81,11111222 
DISL,ioos:station:DISL:MHPA:1,2019-10-25T10:30:00Z,30.6671,-87.9365,1.624,6.29,11111222 
DISL,ioos:station:DISL:MHPA:1,2019-10-25T11:30:00Z,30.6671,-87.9365,1.646,6.0,11111222 
DISL,ioos:station:DISL:MHPA:1,2019-10-25T12:30:00Z,30.6671,-87.9365,1.652,5.14,11111222 
DISL,ioos:station:DISL:MHPA:1,2019-10-25T13:30:00Z,30.6671,-87.9365,1.681,5.42,11111222 
DISL,ioos:station:DISL:MHPA:1,2019-10-25T14:30:00Z,30.6671,-87.9365,1.691,6.27,11111222 
DISL,ioos:station:DISL:MHPA:1,2019-10-25T15:30:00Z,30.6671,-87.9365,1.704,5.88,11111222 
DISL,ioos:station:DISL:MHPA:1,2019-10-25T16:30:00Z,30.6671,-87.9365,1.748,6.38,11111222 
DISL,ioos:station:DISL:MHPA:1,2019-10-25T17:30:00Z,30.6671,-87.9365,1.845,5.3,11111222 
DISL,ioos:station:DISL:MHPA:1,2019-10-25T18:30:00Z,30.6671,-87.9365,1.799,7.1,11111222 
DISL,ioos:station:DISL:MHPA:1,2019-10-25T19:30:00Z,30.6671,-87.9365,1.751,8.2,11111222 
DISL,ioos:station:DISL:MHPA:1,2019-10-25T20:30:00Z,30.6671,-87.9365,1.704,7.53,11111222 
DISL,ioos:station:DISL:MHPA:1,2019-10-25T21:30:00Z,30.6671,-87.9365,1.671,7.77,11111222 
DISL,ioos:station:DISL:MHPA:1,2019-10-25T22:30:00Z,30.6671,-87.9365,1.625,7.41,11111222 
DISL,ioos:station:DISL:MHPA:1,2019-10-25T23:30:00Z,30.6671,-87.9365,1.612,7.5,11111222 
DISL,ioos:station:DISL:MHPA:1,2019-10-26T00:30:00Z,30.6671,-87.9365,1.617,7.14,11111222 
DISL,ioos:station:DISL:MHPA:1,2019-10-26T01:30:00Z,30.6671,-87.9365,1.629,7.01,11111222 
DISL,ioos:station:DISL:MHPA:1,2019-10-26T02:30:00Z,30.6671,-87.9365,1.653,6.75,11111222 
DISL,ioos:station:DISL:MHPA:1,2019-10-26T03:30:00Z,30.6671,-87.9365,1.7,6.56,11111222 
DISL,ioos:station:DISL:MHPA:1,2019-10-26T04:30:00Z,30.6671,-87.9365,1.723,6.74,11111222 
DISL,ioos:station:DISL:MHPA:1,2019-10-26T05:30:00Z,30.6671,-87.9365,1.739,6.72,11111222 
DISL,ioos:station:DISL:MHPA:1,2019-10-26T06:30:00Z,30.6671,-87.9365,1.747,6.46,11111222 
DISL,ioos:station:DISL:MHPA:1,2019-10-26T07:30:00Z,30.6671,-87.9365,1.731,6.91,11111222 
DISL,ioos:station:DISL:MHPA:1,2019-10-26T08:30:00Z,30.6671,-87.9365,1.719,6.72,11111222 
DISL,ioos:station:DISL:MHPA:1,2019-10-26T09:30:00Z,30.6671,-87.9365,1.688,6.42,11111222 
DISL,ioos:station:DISL:MHPA:1,2019-10-26T10:30:00Z,30.6671,-87.9365,1.699,6.77,11111222 
DISL,ioos:station:DISL:MHPA:1,2019-10-26T11:30:00Z,30.6671,-87.9365,1.792,6.69,11111222 
DISL,ioos:station:DISL:MHPA:1,2019-10-26T12:30:00Z,30.6671,-87.9365,1.862,6.53,11111222 
DISL,ioos:station:DISL:MHPA:1,2019-10-26T13:30:00Z,30.6671,-87.9365,1.903,6.45,11111222 
DISL,ioos:station:DISL:MHPA:1,2019-10-26T14:30:00Z,30.6671,-87.9365,1.997,6.7,11111222 
DISL,ioos:station:DISL:MHPA:1,2019-10-26T15:30:00Z,30.6671,-87.9365,2.1,6.71,11111222 
DISL,ioos:station:DISL:MHPA:1,2019-10-26T16:30:00Z,30.6671,-87.9365,2.07,6.63,11111222 
DISL,ioos:station:DISL:MHPA:1,2019-10-26T17:30:00Z,30.6671,-87.9365,1.993,6.58,11111222 
DISL,ioos:station:DISL:MHPA:1,2019-10-26T18:30:00Z,30.6671,-87.9365,1.958,6.86,11111222 
DISL,ioos:station:DISL:MHPA:1,2019-10-26T19:30:00Z,30.6671,-87.9365,1.822,6.87,11111222 
DISL,ioos:station:DISL:MHPA:1,2019-10-26T20:30:00Z,30.6671,-87.9365,1.726,7.02,11111222 
DISL,ioos:station:DISL:MHPA:1,2019-10-26T21:30:00Z,30.6671,-87.9365,1.667,6.77,11111222 
DISL,ioos:station:DISL:MHPA:1,2019-10-26T22:30:00Z,30.6671,-87.9365,1.645,6.45,11111222 
DISL,ioos:station:DISL:MHPA:1,2019-10-26T23:30:00Z,30.6671,-87.9365,1.589,6.14,11111222 
DISL,ioos:station:DISL:MHPA:1,2019-10-27T00:30:00Z,30.6671,-87.9365,1.631,5.98,11111222 
DISL,ioos:station:DISL:MHPA:1,2019-10-27T01:30:00Z,30.6671,-87.9365,1.64,6.34,11111222 
DISL,ioos:station:DISL:MHPA:1,2019-10-27T02:30:00Z,30.6671,-87.9365,1.642,6.16,11111222 
DISL,ioos:station:DISL:MHPA:1,2019-10-27T03:30:00Z,30.6671,-87.9365,1.649,5.93,11111222 
DISL,ioos:station:DISL:MHPA:1,2019-10-27T04:30:00Z,30.6671,-87.9365,1.638,6.22,11111222 
DISL,ioos:station:DISL:MHPA:1,2019-10-27T05:30:00Z,30.6671,-87.9365,1.631,5.81,11111222 
DISL,ioos:station:DISL:MHPA:1,2019-10-27T06:30:00Z,30.6671,-87.9365,1.611,5.76,11111222 
DISL,ioos:station:DISL:MHPA:1,2019-10-27T07:30:00Z,30.6671,-87.9365,1.573,5.63,11111222 
DISL,ioos:station:DISL:MHPA:1,2019-10-27T08:30:00Z,30.6671,-87.9365,1.539,5.48,11111222 
DISL,ioos:station:DISL:MHPA:1,2019-10-27T09:30:00Z,30.6671,-87.9365,1.486,5.3,11111222 
DISL,ioos:station:DISL:MHPA:1,2019-10-27T10:30:00Z,30.6671,-87.9365,1.44,5.11,11111222 
DISL,ioos:station:DISL:MHPA:1,2019-10-27T11:30:00Z,30.6671,-87.9365,1.403,5.02,11111222 
DISL,ioos:station:DISL:MHPA:1,2019-10-27T12:30:00Z,30.6671,-87.9365,1.384,5.34,11111222 
DISL,ioos:station:DISL:MHPA:1,2019-10-27T13:30:00Z,30.6671,-87.9365,1.372,4.81,11111222 
DISL,ioos:station:DISL:MHPA:1,2019-10-27T14:30:00Z,30.6671,-87.9365,1.416,4.73,11111222 
DISL,ioos:station:DISL:MHPA:1,2019-10-27T15:30:00Z,30.6671,-87.9365,1.454,4.88,11111222 
DISL,ioos:station:DISL:MHPA:1,2019-10-27T16:30:00Z,30.6671,-87.9365,1.506,5.33,11111222 
DISL,ioos:station:DISL:MHPA:1,2019-10-27T17:30:00Z,30.6671,-87.9365,1.575,5.73,11111222 
DISL,ioos:station:DISL:MHPA:1,2019-10-27T18:30:00Z,30.6671,-87.9365,1.593,5.26,11111222 
DISL,ioos:station:DISL:MHPA:1,2019-10-27T19:30:00Z,30.6671,-87.9365,1.632,5.9,11111222 
DISL,ioos:station:DISL:MHPA:1,2019-10-27T20:30:00Z,30.6671,-87.9365,1.615,6.34,11111222 
DISL,ioos:station:DISL:MHPA:1,2019-10-27T21:30:00Z,30.6671,-87.9365,1.599,6.42,11111222 
DISL,ioos:station:DISL:MHPA:1,2019-10-27T22:30:00Z,30.6671,-87.9365,1.563,6.29,11111222 
DISL,ioos:station:DISL:MHPA:1,2019-10-27T23:30:00Z,30.6671,-87.9365,1.543,6.04,11111222 
DISL,ioos:station:DISL:MHPA:1,2019-10-28T00:30:00Z,30.6671,-87.9365,1.538,5.6,11111222 
DISL,ioos:station:DISL:MHPA:1,2019-10-28T01:30:00Z,30.6671,-87.9365,1.61,0.0,11111222 
DISL,ioos:station:DISL:MHPA:1,2019-10-28T02:30:00Z,30.6671,-87.9365,1.598,5.75,11111222 
DISL,ioos:station:DISL:MHPA:1,2019-10-28T03:30:00Z,30.6671,-87.9365,1.646,5.63,11111222 
DISL,ioos:station:DISL:MHPA:1,2019-10-28T04:30:00Z,30.6671,-87.9365,1.676,5.17,11111222 
DISL,ioos:station:DISL:MHPA:1,2019-10-28T05:30:00Z,30.6671,-87.9365,1.659,5.47,11111222 
DISL,ioos:station:DISL:MHPA:1,2019-10-28T06:30:00Z,30.6671,-87.9365,1.619,5.6,11111222 
DISL,ioos:station:DISL:MHPA:1,2019-10-28T07:30:00Z,30.6671,-87.9365,1.544,5.8,11111222 
DISL,ioos:station:DISL:MHPA:1,2019-10-28T08:30:00Z,30.6671,-87.9365,1.463,5.65,11111222 
DISL,ioos:station:DISL:MHPA:1,2019-10-28T09:30:00Z,30.6671,-87.9365,1.41,5.18,11111222 
DISL,ioos:station:DISL:MHPA:1,2019-10-28T10:30:00Z,30.6671,-87.9365,1.338,5.07,11111222 
DISL,ioos:station:DISL:MHPA:1,2019-10-28T11:30:00Z,30.6671,-87.9365,1.287,4.79,11111222 
DISL,ioos:station:DISL:MHPA:1,2019-10-28T12:30:00Z,30.6671,-87.9365,1.239,4.96,11111222 
DISL,ioos:station:DISL:MHPA:1,2019-10-28T13:30:00Z,30.6671,-87.9365,1.211,5.06,11111222 
DISL,ioos:station:DISL:MHPA:1,2019-10-28T14:30:00Z,30.6671,-87.9365,1.213,4.59,11111222 
DISL,ioos:station:DISL:MHPA:1,2019-10-28T15:30:00Z,30.6671,-87.9365,1.202,5.0,11111222 
DISL,ioos:station:DISL:MHPA:1,2019-10-28T16:30:00Z,30.6671,-87.9365,1.259,5.32,11111222 
DISL,ioos:station:DISL:MHPA:1,2019-10-28T17:30:00Z,30.6671,-87.9365,1.283,5.92,11111222 
DISL,ioos:station:DISL:MHPA:1,2019-10-28T18:30:00Z,30.6671,-87.9365,1.307,6.02,11111222 
DISL,ioos:station:DISL:MHPA:1,2019-10-28T19:30:00Z,30.6671,-87.9365,1.397,5.74,11111222 